Measurements were made at the meteorological tower in Juelich (50.90 N / 6.40 E) at an altitude of 100 m,
"Instrument: Fast Greenhouse Gas Analyzer (FGGA), Los Gatos Inc.",
Responsible PI: Dr. Marc von Hobe; Forschungszentrum Juelich GmbH; IEK-7; email: m.von.hobe@fz-juelich.de,
NaN or negative numbers are fill values (i.e. no valid measurements were made at that time),
Uncertainties are given as the 1-sigma standard deviation over each 10 minute intervals. In each interval ~600 individual measurements are carried out so that the standard error of the mean is approximately sigma/sqrt(600).,
time_utc,CO2_ppm,stdev_CO2_ppm,CH4_ppm,stdev_CH4_ppm,H2O_ppm,stdev_H2O_ppm
"2015-10-01 00:05:00 000",403.356,0.823750,1.94891,0.00417644,7526.08,125.798
"2015-10-01 00:15:00 000",404.159,0.915703,1.94958,0.00422995,7531.48,135.047
"2015-10-01 00:25:00 000",404.871,0.817121,1.95266,0.00446739,7590.52,140.597
"2015-10-01 00:35:00 000",405.221,0.772482,1.95282,0.00450966,7621.27,154.585
"2015-10-01 00:45:00 000",404.720,0.840779,1.95144,0.00488659,7618.25,166.102
"2015-10-01 00:55:00 000",404.276,0.868502,1.94920,0.00482399,7518.93,173.964
"2015-10-01 01:05:00 000",403.868,0.969477,1.95065,0.00546950,7503.42,192.133
"2015-10-01 01:15:00 000",403.677,1.01044,1.94865,0.00546195,7388.43,192.445
"2015-10-01 01:25:00 000",403.984,0.987025,1.95051,0.00565282,7355.93,207.497
"2015-10-01 01:35:00 000",403.734,0.973459,1.95001,0.00551951,7311.98,201.115
"2015-10-01 01:45:00 000",403.314,1.20594,1.94703,0.00533993,7219.63,209.270
"2015-10-01 01:55:00 000",404.526,0.915590,1.94888,0.00513417,7295.34,203.844
"2015-10-01 02:05:00 000",404.124,0.872814,1.94883,0.00490237,7236.54,203.168
"2015-10-01 02:15:00 000",404.846,0.876459,1.94819,0.00501963,7257.89,200.214
"2015-10-01 02:25:00 000",404.016,1.10011,1.94813,0.00542739,7229.10,212.077
"2015-10-01 02:35:00 000",404.312,0.987955,1.94806,0.00516920,7168.98,186.982
"2015-10-01 02:45:00 000",404.867,0.939520,1.94958,0.00502578,7176.29,193.986
"2015-10-01 02:55:00 000",404.771,0.900877,1.95035,0.00520199,7168.76,192.952
"2015-10-01 03:05:00 000",405.387,0.850071,1.94986,0.00489529,7209.74,203.645
"2015-10-01 03:15:00 000",406.689,0.867788,1.95045,0.00482516,7228.57,183.858
"2015-10-01 03:25:00 000",407.159,0.772111,1.95076,0.00484168,7266.55,180.932
"2015-10-01 03:35:00 000",406.881,0.864131,1.94968,0.00479347,7258.04,179.364
"2015-10-01 03:45:00 000",406.283,0.821962,1.95020,0.00474035,7215.75,187.483
"2015-10-01 03:55:00 000",406.817,1.00540,1.95092,0.00473865,7276.15,175.840
"2015-10-01 04:05:00 000",407.287,0.962707,1.95101,0.00497980,7235.72,180.786
"2015-10-01 04:15:00 000",408.317,0.882443,1.95015,0.00477323,7265.08,179.668
"2015-10-01 04:25:00 000",408.011,0.852969,1.95071,0.00456089,7252.64,178.827
"2015-10-01 04:35:00 000",407.325,0.868286,1.94998,0.00477313,7266.19,169.440
"2015-10-01 04:45:00 000",406.648,0.833052,1.94949,0.00486181,7245.57,164.516
"2015-10-01 04:55:00 000",406.182,0.977688,1.94756,0.00456485,7222.78,164.987
"2015-10-01 05:05:00 000",406.091,0.948862,1.94900,0.00472047,7230.28,165.630
"2015-10-01 05:15:00 000",405.466,0.910917,1.94988,0.00466172,7211.77,168.318
"2015-10-01 05:25:00 000",407.565,2.00802,1.95486,0.00610483,7132.59,159.142
"2015-10-01 05:35:00 000",410.074,1.23041,1.96174,0.00511096,7252.14,171.733
"2015-10-01 05:45:00 000",409.736,0.796069,1.95621,0.00485653,7316.23,168.092
"2015-10-01 05:55:00 000",409.798,0.797694,1.95537,0.00433154,7288.29,168.082
"2015-10-01 06:05:00 000",410.173,0.874495,1.95680,0.00464202,7271.26,173.610
"2015-10-01 06:15:00 000",411.586,1.28228,1.96084,0.00584421,7335.57,171.638
"2015-10-01 06:25:00 000",411.320,1.06725,1.96561,0.00522493,7390.25,174.739
"2015-10-01 06:35:00 000",411.551,1.04657,1.96566,0.00544281,7375.44,182.400
"2015-10-01 06:45:00 000",412.652,1.21410,1.96441,0.00575161,7376.94,176.009
"2015-10-01 06:55:00 000",413.999,1.70960,1.97230,0.00869389,7418.52,182.653
"2015-10-01 07:05:00 000",412.330,1.52529,1.96751,0.00814904,7396.48,186.982
"2015-10-01 07:15:00 000",412.448,1.28144,1.96601,0.00797426,7353.46,180.480
"2015-10-01 07:25:00 000",413.161,1.87014,1.97169,0.0111122,7388.88,196.834
"2015-10-01 07:35:00 000",412.805,1.20797,1.96474,0.00687413,7414.40,207.664
"2015-10-01 07:45:00 000",410.157,1.69534,1.95941,0.00943970,7307.91,215.416
"2015-10-01 07:55:00 000",408.256,1.20677,1.95562,0.00549384,7270.77,201.918
"2015-10-01 08:05:00 000",407.060,1.24550,1.95280,0.00524234,7200.59,182.318
"2015-10-01 08:15:00 000",408.479,1.04107,1.95812,0.00502050,7167.55,164.987
"2015-10-01 08:25:00 000",409.802,1.09819,1.97055,0.00674246,7262.40,126.429
"2015-10-01 08:35:00 000",410.088,1.04973,1.98710,0.00716574,7183.48,128.455
"2015-10-01 08:45:00 000",409.528,1.64030,1.99997,0.0136395,7151.37,185.123
"2015-10-01 08:55:00 000",408.124,1.37439,2.00499,0.0111062,6987.24,198.977
"2015-10-01 09:05:00 000",404.434,2.20210,1.98462,0.0190430,6485.07,362.818
"2015-10-01 09:15:00 000",399.909,1.59732,1.95371,0.00816341,6076.01,163.833
"2015-10-01 09:25:00 000",398.355,1.29667,1.94987,0.00561851,5956.54,139.643
"2015-10-01 09:35:00 000",396.539,0.968956,1.94303,0.00774976,5779.15,136.678
"2015-10-01 09:45:00 000",397.991,0.902656,1.96450,0.0102983,5841.08,167.536
"2015-10-01 09:55:00 000",396.380,0.991588,1.94055,0.0164652,5605.73,237.014
"2015-10-01 10:05:00 000",395.819,0.783661,1.92991,0.00385693,5691.21,106.121
"2015-10-01 10:15:00 000",395.266,0.872635,1.93112,0.00379701,5855.93,99.6553
"2015-10-01 10:25:00 000",395.805,0.867565,1.93266,0.00379474,5884.23,107.354
"2015-10-01 10:35:00 000",395.780,0.934280,1.93415,0.00404771,5915.24,129.691
"2015-10-01 10:45:00 000",395.465,0.848718,1.93390,0.00391767,5943.40,101.436
"2015-10-01 10:55:00 000",395.280,0.899750,1.93382,0.00402465,6074.92,122.972
"2015-10-01 11:05:00 000",395.510,1.36504,1.93276,0.00410671,6086.49,113.833
"2015-10-01 11:15:00 000",395.446,0.909381,1.93367,0.00402358,6105.09,138.070
"2015-10-01 11:25:00 000",394.899,0.915450,1.93478,0.00416544,6110.75,128.734
"2015-10-01 11:35:00 000",395.241,0.973939,1.93341,0.00438211,6086.73,138.053
"2015-10-01 11:45:00 000",394.593,0.952757,1.93083,0.00464319,5963.32,94.0451
"2015-10-01 11:55:00 000",394.043,0.945489,1.92929,0.00449619,6192.40,111.765
"2015-10-01 12:05:00 000",393.709,0.892685,1.93084,0.00422807,6092.28,139.202
"2015-10-01 12:15:00 000",393.780,0.887829,1.93031,0.00445712,6086.10,109.023
"2015-10-01 12:25:00 000",398.820,4.89117,1.92868,0.00418946,6119.30,132.324
"2015-10-01 12:35:00 000",396.441,2.01862,1.92887,0.00406496,6150.45,98.8339
"2015-10-01 12:45:00 000",395.225,1.32417,1.92950,0.00417415,6273.57,116.777
"2015-10-01 12:55:00 000",394.335,1.37430,1.92687,0.00421995,6198.44,158.541
"2015-10-01 13:05:00 000",396.253,2.81567,1.92684,0.00403009,6206.46,119.744
"2015-10-01 13:15:00 000",394.775,1.90304,1.92617,0.00420403,6217.73,121.733
"2015-10-01 13:25:00 000",398.910,3.32416,1.92673,0.00407092,6386.47,128.941
"2015-10-01 13:35:00 000",400.126,1.97844,1.92701,0.00413433,6347.58,136.900
"2015-10-01 13:45:00 000",398.584,1.88067,1.92659,0.00415065,6309.99,131.233
"2015-10-01 13:55:00 000",400.924,3.77073,1.92596,0.00427176,6274.09,170.547
"2015-10-01 14:05:00 000",394.063,1.09200,1.93130,0.00431790,6552.45,134.067
"2015-10-01 14:15:00 000",394.913,0.992860,1.93046,0.00428500,6714.44,144.385
"2015-10-01 14:25:00 000",393.047,1.89283,1.92923,0.00427881,6496.69,223.390
"2015-10-01 14:35:00 000",392.372,1.37592,1.93242,0.00616713,6602.47,262.260
"2015-10-01 14:45:00 000",393.770,2.01879,1.93292,0.00664634,6644.64,323.033
"2015-10-01 14:55:00 000",394.035,1.01508,1.94152,0.00462810,7140.45,140.259
"2015-10-01 15:05:00 000",394.363,0.933646,1.94166,0.00519605,7123.17,205.047
"2015-10-01 15:15:00 000",394.230,1.21941,1.93657,0.00478006,7071.94,130.244
"2015-10-01 15:25:00 000",394.462,1.26761,1.93660,0.00423390,7144.50,110.961
"2015-10-01 15:35:00 000",394.015,1.03134,1.93540,0.00416685,7209.43,164.030
"2015-10-01 15:45:00 000",396.475,1.30015,1.93279,0.00432467,7145.36,123.700
"2015-10-01 15:55:00 000",394.310,1.07379,1.93157,0.00408655,7189.78,130.409
"2015-10-01 16:05:00 000",393.601,0.957425,1.93185,0.00397688,7146.29,115.099
"2015-10-01 16:15:00 000",393.107,0.879980,1.93166,0.00388096,7206.90,124.746
"2015-10-01 16:25:00 000",393.371,1.05184,1.93213,0.00425946,7220.79,121.705
"2015-10-01 16:35:00 000",395.059,0.955233,1.93350,0.00415990,7320.09,120.665
"2015-10-01 16:45:00 000",393.724,0.951381,1.93409,0.00402992,7292.26,116.820
"2015-10-01 16:55:00 000",392.857,0.880912,1.93417,0.00403489,7285.30,99.6153
"2015-10-01 17:05:00 000",392.565,0.852836,1.93145,0.00382975,7273.51,100.281
"2015-10-01 17:15:00 000",393.000,0.727602,1.93213,0.00363082,7292.97,102.611
"2015-10-01 17:25:00 000",393.377,0.781366,1.93160,0.00379314,7267.94,99.5731
"2015-10-01 17:35:00 000",393.583,0.807568,1.93175,0.00401495,7277.30,91.1878
"2015-10-01 17:45:00 000",394.027,0.818685,1.93352,0.00397800,7264.73,94.2053
"2015-10-01 17:55:00 000",395.348,0.922189,1.93428,0.00401523,7342.98,111.246
"2015-10-01 18:05:00 000",396.273,0.820116,1.93628,0.00407360,7380.92,90.0521
"2015-10-01 18:15:00 000",396.378,0.893615,1.93691,0.00391187,7376.51,97.5147
"2015-10-01 18:25:00 000",396.952,0.835471,1.94233,0.00484968,7520.00,93.1753
"2015-10-01 18:35:00 000",396.856,0.876020,1.94548,0.00477048,7447.60,102.692
"2015-10-01 18:45:00 000",396.671,0.824522,1.94199,0.00385630,7354.80,85.8741
"2015-10-01 18:55:00 000",396.784,0.823719,1.94500,0.00415928,7431.38,85.9052
"2015-10-01 19:05:00 000",397.795,0.786705,1.94796,0.00364592,7469.07,76.7202
"2015-10-01 19:15:00 000",398.262,0.766084,1.95035,0.00402285,7448.93,77.7642
"2015-10-01 19:25:00 000",398.502,0.780274,1.95405,0.00499118,7419.55,78.8757
"2015-10-01 19:35:00 000",398.558,0.832447,1.96183,0.00442664,7383.62,86.8188
"2015-10-01 19:45:00 000",399.286,0.799805,1.97357,0.00761850,7463.62,84.2398
"2015-10-01 19:55:00 000",399.581,0.788578,1.98218,0.00496943,7490.05,80.1792
"2015-10-01 20:05:00 000",399.971,0.790672,1.98919,0.00618067,7493.42,81.7699
"2015-10-01 20:15:00 000",400.443,0.859791,1.97869,0.00513765,7456.06,74.3189
"2015-10-01 20:25:00 000",400.446,0.867985,1.96679,0.00443917,7221.44,103.517
"2015-10-01 20:35:00 000",401.948,1.02473,1.97466,0.00476079,7393.26,131.680
"2015-10-01 20:45:00 000",400.646,1.26209,1.97210,0.00725063,7122.88,212.065
"2015-10-01 20:55:00 000",399.848,0.852359,1.95800,0.00806031,6847.43,81.2378
"2015-10-01 21:05:00 000",400.969,1.07680,1.96078,0.00860528,6956.51,121.962
"2015-10-01 21:15:00 000",400.454,0.941370,1.96770,0.00803113,6936.77,88.0913
"2015-10-01 21:25:00 000",400.002,0.910509,1.96438,0.00695930,6901.23,85.2515
"2015-10-01 21:35:00 000",400.024,0.825460,1.96282,0.00394459,6923.91,77.9599
"2015-10-01 21:45:00 000",400.306,0.827158,1.96193,0.00543082,6942.21,79.1749
"2015-10-01 21:55:00 000",400.567,0.812062,1.95695,0.00398909,6923.99,80.8701
"2015-10-01 22:05:00 000",400.968,0.771986,1.95661,0.00414191,6969.14,69.1517
"2015-10-01 22:15:00 000",401.359,0.798877,1.95398,0.00473308,6928.86,75.0328
"2015-10-01 22:25:00 000",401.957,0.887734,1.95604,0.00586162,6966.30,71.7300
"2015-10-01 22:35:00 000",403.237,1.37833,1.97293,0.00685026,7012.55,78.2886
"2015-10-01 22:45:00 000",406.837,1.06172,1.98349,0.00481440,7168.83,86.7396
"2015-10-01 22:55:00 000",408.336,0.772293,1.98908,0.00393173,7240.52,70.4600
"2015-10-01 23:05:00 000",407.233,0.848045,1.98405,0.00463758,7225.46,73.3642
"2015-10-01 23:15:00 000",407.735,0.913052,1.97446,0.00462269,7253.46,73.7413
"2015-10-01 23:25:00 000",408.693,0.858320,1.97955,0.00421966,7290.02,75.9462
"2015-10-01 23:35:00 000",410.081,0.856966,1.98105,0.00390710,7354.47,76.2508
"2015-10-01 23:45:00 000",409.472,0.883084,1.98134,0.00376301,7383.10,70.3979
"2015-10-01 23:55:00 000",409.361,0.888348,1.97759,0.00441982,7345.85,73.4554
"2015-10-02 00:05:00 000",410.165,0.934089,1.97258,0.00408258,7341.88,71.1976
"2015-10-02 00:15:00 000",409.006,1.32935,1.97016,0.00450523,7267.77,76.5400
"2015-10-02 00:25:00 000",417.073,3.53964,1.99228,0.0131329,7335.28,77.5917
"2015-10-02 00:35:00 000",419.595,6.07277,1.99673,0.0140299,7201.29,100.274
"2015-10-02 00:45:00 000",407.918,2.69718,1.96652,0.00752170,7046.04,83.8506
"2015-10-02 00:55:00 000",405.430,2.95831,1.95838,0.00734593,7005.22,81.8708
"2015-10-02 01:05:00 000",411.900,1.57640,1.98658,0.00744592,7088.74,82.4018
"2015-10-02 01:15:00 000",411.467,2.44075,1.99086,0.0157300,7150.43,82.1163
"2015-10-02 01:25:00 000",413.312,1.19388,2.00396,0.0107635,7172.01,78.8888
"2015-10-02 01:35:00 000",412.563,0.917665,1.98314,0.00409543,7160.50,84.2316
"2015-10-02 01:45:00 000",414.393,1.01949,1.99772,0.00747058,7193.57,90.8041
"2015-10-02 01:55:00 000",413.146,1.15335,2.00441,0.00468201,7239.92,90.7730
"2015-10-02 02:05:00 000",415.803,1.11257,2.01458,0.00738334,7252.07,101.541
"2015-10-02 02:15:00 000",417.725,0.931310,2.02323,0.00492551,7253.50,115.516
"2015-10-02 02:25:00 000",415.372,1.07776,2.02022,0.00534004,7241.33,118.921
"2015-10-02 02:35:00 000",414.688,0.891898,2.01998,0.00549785,7252.70,127.551
"2015-10-02 02:45:00 000",414.386,0.834705,2.02914,0.00534477,7242.14,146.708
"2015-10-02 02:55:00 000",414.490,1.08651,2.02950,0.00981907,7252.15,147.211
"2015-10-02 03:05:00 000",410.354,1.81199,1.98762,0.0138463,7182.32,162.150
"2015-10-02 03:15:00 000",411.537,1.78911,1.98934,0.00832080,7212.56,160.085
"2015-10-02 03:25:00 000",411.721,1.95262,1.98529,0.0123134,7250.06,185.261
"2015-10-02 03:35:00 000",409.679,1.11016,1.97778,0.00608360,7208.46,179.420
"2015-10-02 03:45:00 000",409.705,0.762782,1.97853,0.00504748,7217.68,182.851
"2015-10-02 03:55:00 000",409.245,0.770341,1.97691,0.00556517,7211.47,190.003
"2015-10-02 04:05:00 000",411.034,1.41059,1.98376,0.00960528,7128.65,208.461
"2015-10-02 04:15:00 000",410.974,0.979011,1.99226,0.00837961,7121.38,208.304
"2015-10-02 04:25:00 000",407.018,1.48919,1.96677,0.0114637,7053.16,199.336
"2015-10-02 04:35:00 000",407.332,1.33107,1.96180,0.00674681,6999.96,195.283
"2015-10-02 04:45:00 000",408.784,1.29944,1.96593,0.00618092,7016.76,190.579
"2015-10-02 04:55:00 000",407.540,0.980760,1.96395,0.00521146,7024.24,202.657
"2015-10-02 05:05:00 000",408.335,0.927148,1.96238,0.00565781,7028.85,177.014
"2015-10-02 05:15:00 000",409.655,2.16982,1.96325,0.00507951,7014.79,184.965
"2015-10-02 05:25:00 000",409.242,1.08571,1.96194,0.00482650,6993.90,175.494
"2015-10-02 05:35:00 000",410.605,1.88566,1.95999,0.00459374,7009.28,164.250
"2015-10-02 05:45:00 000",410.091,2.38883,1.96190,0.00577498,6946.91,164.087
"2015-10-02 05:55:00 000",412.209,1.55098,1.96653,0.00523852,6964.96,157.300
"2015-10-02 06:05:00 000",412.967,1.20555,1.96976,0.00487191,7020.73,144.638
"2015-10-02 06:15:00 000",418.615,2.15511,1.98317,0.00794581,7049.44,146.343
"2015-10-02 06:25:00 000",416.537,2.67332,1.98554,0.0109044,7082.67,163.010
"2015-10-02 06:35:00 000",416.334,2.38315,1.97399,0.00819835,7069.64,161.057
"2015-10-02 06:45:00 000",417.909,1.81485,1.97802,0.00855690,7105.55,171.213
"2015-10-02 06:55:00 000",417.642,1.53294,1.98207,0.00739933,7105.53,174.284
"2015-10-02 07:05:00 000",421.208,1.73306,1.99054,0.00641430,7206.84,181.421
"2015-10-02 07:15:00 000",417.211,1.73313,1.99288,0.0110143,7199.09,188.783
"2015-10-02 07:25:00 000",417.168,1.39301,2.00301,0.0142089,7273.61,206.930
"2015-10-02 07:35:00 000",417.259,1.28853,2.00111,0.00898418,7265.21,200.336
"2015-10-02 07:45:00 000",415.073,1.30907,1.99414,0.00818324,7259.00,195.476
"2015-10-02 07:55:00 000",415.499,1.99756,1.99494,0.0120654,7235.81,171.897
"2015-10-02 08:05:00 000",415.193,1.84403,2.00446,0.00927937,7312.60,152.294
"2015-10-02 08:15:00 000",418.673,2.96090,2.00942,0.00731564,7149.79,133.508
"2015-10-02 08:25:00 000",423.036,2.03091,2.02468,0.00776095,7245.61,113.118
"2015-10-02 08:35:00 000",424.761,1.34869,2.03201,0.00607404,7415.16,101.451
"2015-10-02 08:45:00 000",427.006,1.66237,2.03614,0.00739931,7409.08,88.5224
"2015-10-02 08:55:00 000",436.771,7.15421,2.05363,0.00875533,7494.33,75.6331
"2015-10-02 09:05:00 000",444.502,5.39862,2.06908,0.00969251,7472.16,80.0476
"2015-10-02 09:15:00 000",450.183,2.45293,2.06194,0.0127059,7510.25,86.1308
"2015-10-02 09:25:00 000",444.964,2.87534,2.08624,0.0168162,7570.09,104.854
"2015-10-02 09:35:00 000",438.737,3.41805,2.07170,0.0184670,7518.13,92.9839
"2015-10-02 09:45:00 000",427.089,6.44794,2.03126,0.0174776,7354.38,127.694
"2015-10-02 09:55:00 000",419.824,2.69078,2.02364,0.0155735,7294.88,151.292
"2015-10-02 10:05:00 000",419.506,1.80876,2.03519,0.00841926,7466.88,99.3776
"2015-10-02 10:15:00 000",422.129,1.81544,2.05619,0.0104685,7666.96,108.801
"2015-10-02 10:25:00 000",423.592,1.97066,2.07482,0.0126333,7760.12,118.984
"2015-10-02 10:35:00 000",420.380,2.26032,2.06533,0.0152720,7737.34,127.893
"2015-10-02 10:45:00 000",417.457,1.78096,2.04620,0.0112353,7562.52,135.994
"2015-10-02 10:55:00 000",418.360,1.51965,2.05521,0.00903579,7695.38,121.902
"2015-10-02 11:05:00 000",415.266,2.42948,2.04134,0.0139931,7687.92,155.298
"2015-10-02 11:15:00 000",414.801,1.46452,2.03839,0.00762821,7481.82,117.664
"2015-10-02 11:25:00 000",414.107,1.14365,2.02153,0.00693261,7488.41,114.662
"2015-10-02 11:35:00 000",413.157,1.63352,2.00730,0.00921011,7439.40,129.468
"2015-10-02 11:45:00 000",411.993,1.41291,2.00059,0.00478393,7498.61,131.274
"2015-10-02 11:55:00 000",410.033,1.13523,1.99318,0.00573454,7426.50,111.110
"2015-10-02 12:05:00 000",408.376,1.09082,1.98529,0.00413884,7494.19,153.925
"2015-10-02 12:15:00 000",406.181,1.14890,1.97970,0.00472709,7409.67,119.107
"2015-10-02 12:25:00 000",404.496,1.08812,1.97809,0.00564352,7348.91,141.613
"2015-10-02 12:35:00 000",404.427,1.02517,1.97836,0.00490030,7270.19,101.245
"2015-10-02 12:45:00 000",404.012,1.46565,1.97777,0.00655365,7320.41,104.710
"2015-10-02 12:55:00 000",402.101,0.994774,1.97019,0.00466400,7300.92,127.999
"2015-10-02 13:05:00 000",402.122,1.03373,1.97572,0.00477703,7574.16,112.433
"2015-10-02 13:15:00 000",401.426,0.945383,1.97590,0.00510684,7606.88,132.688
"2015-10-02 13:25:00 000",402.082,0.940331,1.99091,0.00583093,7667.66,119.963
"2015-10-02 13:35:00 000",402.804,1.02391,1.98721,0.00464122,7569.80,132.086
"2015-10-02 13:45:00 000",403.232,0.998097,1.98906,0.00501286,7640.85,118.423
"2015-10-02 13:55:00 000",404.593,1.11302,1.99229,0.00471241,7661.57,141.782
"2015-10-02 14:05:00 000",405.314,0.972385,1.99558,0.00471394,7678.04,113.576
"2015-10-02 14:15:00 000",404.734,0.898630,1.99458,0.00474887,7752.84,117.524
"2015-10-02 14:25:00 000",405.025,1.00846,1.99737,0.00457414,7779.89,126.184
"2015-10-02 14:35:00 000",404.515,0.936412,1.99856,0.00501661,7895.64,138.098
"2015-10-02 14:45:00 000",403.988,0.876528,1.99865,0.00454890,7852.83,117.563
"2015-10-02 14:55:00 000",404.136,0.866095,1.99733,0.00489490,7889.01,99.2202
"2015-10-02 15:05:00 000",404.550,0.836083,2.00025,0.00549003,7901.59,111.690
"2015-10-02 15:15:00 000",404.122,0.902475,1.99918,0.00590744,7905.43,129.838
"2015-10-02 15:25:00 000",403.610,0.820814,2.00146,0.00568586,7959.75,111.073
"2015-10-02 15:35:00 000",403.157,0.788072,1.99699,0.00493857,7943.96,118.198
"2015-10-02 15:45:00 000",403.424,0.975079,1.99667,0.00405191,8121.09,142.758
"2015-10-02 15:55:00 000",408.024,2.19608,1.99578,0.00481561,8504.23,122.862
"2015-10-02 16:05:00 000",416.983,2.05817,2.00191,0.00464141,8505.71,143.587
"2015-10-02 16:15:00 000",410.663,2.82453,2.00793,0.00694961,8809.07,116.428
"2015-10-02 16:25:00 000",407.695,0.905100,2.01810,0.00454027,8962.27,106.665
"2015-10-02 16:35:00 000",406.221,0.912114,2.01729,0.00457032,8907.79,102.816
"2015-10-02 16:45:00 000",405.600,0.877881,2.01738,0.00440097,8917.45,95.1718
"2015-10-02 16:55:00 000",405.211,0.986811,2.01409,0.00486339,8944.89,91.1415
"2015-10-02 17:05:00 000",404.600,1.01370,2.01417,0.00469282,9078.20,99.0060
"2015-10-02 17:15:00 000",402.801,1.24447,2.01018,0.00547371,9071.12,87.4362
"2015-10-02 17:25:00 000",402.013,0.990824,2.00522,0.00488867,9011.50,77.2029
"2015-10-02 17:35:00 000",401.083,1.07324,1.99824,0.00523951,8965.40,72.3084
"2015-10-02 17:45:00 000",401.161,1.79144,1.99687,0.00528977,9087.31,91.7309
"2015-10-02 17:55:00 000",402.867,1.35312,1.99552,0.00578943,9178.30,89.3940
"2015-10-02 18:05:00 000",404.810,3.26826,1.98670,0.00609194,9097.27,96.5732
"2015-10-02 18:15:00 000",406.206,2.27132,1.97556,0.00531858,8813.95,122.965
"2015-10-02 18:25:00 000",400.840,1.88640,1.97006,0.00501408,8622.30,127.076
"2015-10-02 18:35:00 000",399.498,1.02120,1.96787,0.00483821,8545.29,115.427
"2015-10-02 18:45:00 000",398.756,1.14091,1.96557,0.00465894,8488.66,116.237
"2015-10-02 18:55:00 000",397.384,1.13680,1.96300,0.00444741,8427.75,110.657
"2015-10-02 19:05:00 000",397.948,1.18416,1.96513,0.00408319,8559.65,111.546
"2015-10-02 19:15:00 000",398.851,0.864101,1.96547,0.00414707,8579.10,95.4388
"2015-10-02 19:25:00 000",399.915,0.958240,1.96619,0.00421962,8613.45,99.4688
"2015-10-02 19:35:00 000",399.831,0.920122,1.96729,0.00411381,8570.66,99.5068
"2015-10-02 19:45:00 000",399.870,0.917962,1.96851,0.00398692,8615.79,93.1391
"2015-10-02 19:55:00 000",399.178,1.03257,1.97092,0.00398590,8641.61,92.3536
"2015-10-02 20:05:00 000",400.410,1.00270,1.97420,0.00431562,8757.58,88.4155
"2015-10-02 20:15:00 000",401.840,0.941936,1.97611,0.00393515,8791.68,89.3321
"2015-10-02 20:25:00 000",401.802,0.918360,1.97682,0.00394542,8739.23,95.4103
"2015-10-02 20:35:00 000",403.037,0.932683,1.97916,0.00449106,8677.11,95.2386
"2015-10-02 20:45:00 000",404.006,0.854181,1.98059,0.00421884,8660.96,88.5594
"2015-10-02 20:55:00 000",403.669,0.931398,1.98127,0.00411504,8569.61,102.943
"2015-10-02 21:05:00 000",407.719,2.09809,1.99165,0.00767022,8671.82,121.919
"2015-10-02 21:15:00 000",409.839,1.96259,2.00047,0.00912315,8754.30,117.325
"2015-10-02 21:25:00 000",410.143,1.58161,2.00094,0.00750143,8825.25,96.7788
"2015-10-02 21:35:00 000",408.343,0.949862,1.99601,0.00414923,8816.22,89.7620
"2015-10-02 21:45:00 000",407.481,0.955119,1.99947,0.00391523,8870.03,90.8003
"2015-10-02 21:55:00 000",411.545,3.04683,2.01281,0.00845831,8903.72,86.3199
"2015-10-02 22:05:00 000",411.887,2.84259,2.00931,0.00927501,8972.54,105.110
"2015-10-02 22:15:00 000",413.646,1.87125,2.01861,0.00683388,8907.02,91.8337
"2015-10-02 22:25:00 000",413.945,1.13187,2.02366,0.00476530,8945.35,92.9091
"2015-10-02 22:35:00 000",413.230,1.02614,2.01923,0.00476567,8973.77,91.7340
"2015-10-02 22:45:00 000",412.615,1.06439,2.01891,0.00580791,8946.96,95.8253
"2015-10-02 22:55:00 000",411.907,0.817514,2.01087,0.00430410,8849.54,102.746
"2015-10-02 23:05:00 000",410.322,1.29292,2.00272,0.00698059,8639.79,136.513
"2015-10-02 23:15:00 000",410.100,0.900422,2.00191,0.00676807,8474.06,90.4800
"2015-10-02 23:25:00 000",409.190,1.65755,2.01201,0.00484567,8491.49,87.9834
"2015-10-02 23:35:00 000",406.551,1.00938,1.99769,0.00689111,8386.22,84.8952
"2015-10-02 23:45:00 000",407.268,0.930415,1.99482,0.00465049,8378.28,90.5813
"2015-10-02 23:55:00 000",408.541,1.10619,2.00993,0.00755598,8476.20,91.3654
"2015-10-03 00:05:00 000",409.395,0.857246,2.00890,0.00579642,8457.42,93.4324
"2015-10-03 00:15:00 000",413.386,1.90280,2.01341,0.00669985,8411.26,91.2355
"2015-10-03 00:25:00 000",416.598,0.952592,2.02687,0.00513435,8411.05,93.4543
"2015-10-03 00:35:00 000",417.927,0.922586,2.04440,0.0109597,8476.30,91.9191
"2015-10-03 00:45:00 000",415.687,2.50396,2.06140,0.0132763,8467.18,117.913
"2015-10-03 00:55:00 000",413.737,0.994777,2.06921,0.00867822,8416.86,93.9978
"2015-10-03 01:05:00 000",415.947,1.42242,2.10124,0.0128797,8521.02,105.192
"2015-10-03 01:15:00 000",415.216,0.980503,2.05020,0.0140907,8519.90,104.819
"2015-10-03 01:25:00 000",415.306,1.07097,2.02581,0.0104788,8502.55,102.462
"2015-10-03 01:35:00 000",414.005,1.40936,2.00856,0.0101176,8534.58,113.849
"2015-10-03 01:45:00 000",411.499,1.91822,1.99612,0.0110861,8531.17,134.276
"2015-10-03 01:55:00 000",413.114,1.97375,2.00126,0.00914213,8612.35,160.255
"2015-10-03 02:05:00 000",414.147,2.00811,2.01471,0.00873663,8876.90,168.055